Temperature
5 6 6 6 6 6 6 6 6 6 6 6 6 6 6 6 6 6 6 6 6 6 6 6 6 6 5 5 5 5 5 5 4 4 4 4 4 4 4 4 4 4 4
5 5 5 6 6 6 6 6 6 6 6 6 6 6 6 6 6 6 6 6 6 6 6 5 5 5 5 5 5 4 4 4 4 4 4 4 4 4 4 4 3 3 3
4 4 5 5 5 5 5 5 5 5 5 5 5 5 5 5 5 5 5 5 5 5 5 5 5 5 5 4 4 4 4 4 4 3 3 3 3 3 3 3 3 3 3
4 4 4 4 5 5 5 5 5 5 5 5 5 5 5 5 5 5 5 5 5 5 4 4 4 4 4 4 4 3 3 3 3 3 3 3 3 2 2 2 2 2 2
3 3 3 4 4 4 4 4 4 4 4 4 4 4 4 4 4 4 4 4 4 4 4 4 4 4 4 3 3 3 3 3 3 3 2 2 2 2 2 1 1 2 2
2 2 3 3 3 3 3 3 4 4 4 4 4 4 4 4 4 4 4 3 3 3 3 3 3 3 3 3 3 3 3 3 2 2 2 2 2 2 1 1 1 1 1
2 2 2 2 2 3 3 3 3 3 3 3 3 3 3 4 4 4 3 3 3 3 3 3 3 3 3 2 2 2 2 2 2 2 2 1 1 1 1 1 1 0 0
1 1 1 2 2 2 2 2 2 2 3 3 3 3 3 3 3 3 3 2 2 2 2 2 2 2 2 2 2 2 2 2 1 1 1 1 1 1 0 0 0 -0 0
-0 0 1 1 1 1 1 2 2 2 2 2 2 2 2 2 2 2 2 2 2 2 2 2 1 1 1 1 1 1 1 1 1 1 1 1 0 0 0 -0 -0 -1 -1
-0 -0 -0 -0 0 1 1 1 1 1 1 1 2 2 2 2 2 2 1 1 1 1 1 1 1 1 1 1 1 1 1 1 1 1 0 0 0 -0 -0 -0 -1 -1 -1
-1 -1 -1 -1 -0 -0 0 0 0 1 1 1 1 1 1 1 1 1 1 1 1 1 1 0 1 1 0 0 0 0 0 0 0 0 -0 -0 -0 -0 -1 -1 -1 -1 -1
-1 -1 -1 -1 -1 -1 -0 -0 -0 -0 -0 -0 -0 -0 -0 0 0 0 0 1 0 0 0 -0 0 0 0 0 -0 -0 -0 -0 -0 -0 -1 -1 -1 -1 -1 -1 -1 -1 -1
-2 -2 -1 -1 -1 -1 -1 -1 -0 -1 -1 -1 -1 -1 -1 -1 -1 -1 -0 -0 -0 -0 -0 -0 -0 -0 -0 -1 -1 -1 -1 -1 -1 -1 -1 -1 -1 -1 -1 -1 -1 -1 -1
-2 -2 -2 -2 -2 -1 -1 -1 -1 -1 -1 -1 -2 -2 -1 -1 -1 -1 -1 -1 -1 -1 -1 -1 -1 -1 -1 -1 -1 -1 -1 -1 -1 -1 -1 -1 -1 -2 -2 -1 -1 -2 -2
-3 -2 -2 -2 -2 -2 -2 -2 -1 -1 -1 -2 -2 -2 -1 -1 -2 -2 -1 -1 -1 -1 -1 -1 -1 -1 -1 -1 -2 -2 -2 -2 -2 -2 -2 -2 -2 -2 -2 -2 -2 -2 -2
-3 -3 -3 -2 -2 -2 -2 -2 -2 -2 -2 -2 -2 -2 -2 -2 -2 -2 -2 -2 -1 -1 -1 -2 -2 -2 -2 -2 -2 -2 -2 -2 -2 -2 -2 -2 -2 -2 -2 -2 -2 -2 -2
-3 -3 -3 -3 -3 -3 -3 -3 -3 -2 -2 -2 -2 -2 -2 -2 -2 -2 -2 -2 -2 -2 -2 -2 -2 -2 -2 -2 -2 -2 -2 -2 -3 -3 -3 -3 -3 -3 -3 -3 -3 -3 -3
-3 -3 -3 -3 -3 -3 -3 -3 -3 -3 -3 -3 -3 -3 -2 -2 -2 -2 -2 -2 -2 -2 -2 -2 -3 -3 -3 -3 -3 -3 -3 -3 -3 -3 -3 -3 -3 -3 -3 -3 -3 -3 -3
-4 -4 -4 -4 -4 -4 -4 -4 -3 -4 -4 -3 -3 -3 -3 -3 -3 -3 -3 -3 -3 -3 -3 -3 -3 -3 -3 -3 -3 -3 -3 -3 -3 -3 -3 -3 -4 -4 -3 -4 -3 -3 -3
-4 -4 -4 -4 -4 -4 -4 -4 -4 -4 -4 -4 -4 -4 -4 -4 -4 -4 -4 -3 -3 -3 -3 -3 -3 -3 -4 -4 -4 -4 -4 -4 -4 -4 -4 -4 -4 -4 -4 -4 -4 -4 -4
-4 -4 -4 -4 -4 -4 -4 -4 -4 -4 -4 -4 -4 -4 -4 -4 -4 -4 -4 -4 -4 -4 -4 -4 -4 -4 -4 -4 -4 -4 -4 -4 -4 -4 -4 -4 -4 -4 -4 -4 -4 -4 -4
-5 -5 -4 -4 -4 -4 -4 -5 -5 -5 -5 -5 -5 -5 -5 -5 -4 -4 -4 -4 -4 -4 -4 -4 -4 -4 -4 -4 -4 -4 -4 -4 -4 -4 -4 -4 -4 -4 -4 -4 -4 -5 -5
-5 -5 -5 -5 -5 -5 -5 -5 -5 -5 -5 -5 -5 -5 -5 -5 -5 -5 -5 -5 -5 -4 -4 -4 -4 -5 -5 -5 -5 -4 -4 -4 -4 -4 -4 -5 -4 -4 -4 -5 -5 -5 -5
-5 -5 -5 -5 -5 -5 -5 -5 -5 -5 -5 -5 -5 -5 -5 -5 -5 -5 -5 -5 -5 -5 -5 -5 -5 -5 -5 -5 -5 -5 -5 -5 -5 -5 -5 -5 -5 -5 -5 -5 -5 -5 -5
-6 -6 -6 -6 -6 -6 -6 -6 -6 -6 -6 -6 -6 -6 -6 -6 -6 -6 -6 -5 -5 -5 -5 -5 -5 -5 -5 -5 -5 -5 -5 -5 -5 -5 -5 -5 -5 -5 -5 -5 -5 -5 -5
-6 -6 -6 -6 -6 -6 -6 -6 -6 -6 -6 -6 -6 -6 -6 -6 -6 -6 -6 -6 -6 -6 -5 -5 -5 -5 -5 -5 -5 -5 -5 -5 -5 -5 -5 -5 -5 -5 -5 -5 -5 -5 -5
Wind_Speed
4 4 5 6 6 7 7 8 8 8 9 9 8 8 8 8 7 7 7 7 7 7 7 7 7 7 5 5 5 5 5 5 6 4 4 4 5 5 5 5 6 6 6
3 3 4 4 5 6 6 6 7 7 8 8 8 8 8 8 7 7 7 7 7 8 8 7 8 6 7 6 5 6 5 6 6 6 5 4 5 5 5 6 6 6 6
2 3 3 4 5 6 6 6 6 7 7 8 8 8 8 7 7 7 7 7 7 7 7 7 7 7 7 6 6 5 5 5 5 5 5 4 4 4 5 5 6 6 6
2 2 3 3 4 5 5 6 6 7 7 7 7 7 7 7 7 7 6 6 6 6 6 6 7 7 7 7 6 6 5 5 5 5 4 4 4 4 4 5 5 5 5
2 2 3 3 3 5 5 5 6 6 6 6 6 7 6 6 6 6 6 6 6 5 5 5 5 6 6 6 6 6 6 5 5 5 4 4 4 4 4 4 5 5 5
3 3 3 2 3 4 5 5 5 6 6 6 6 6 6 5 7 8 6 6 5 5 5 4 4 5 6 7 7 7 7 7 6 5 5 6 6 5 4 4 4 5 5
4 3 3 3 3 3 3 4 5 5 5 5 5 5 6 6 7 8 7 5 5 5 5 4 4 4 5 5 6 7 8 8 8 7 7 7 6 6 6 6 6 6 6
4 4 4 3 3 2 3 3 4 4 4 5 4 5 4 5 7 7 6 5 4 5 5 5 5 5 5 5 5 5 5 5 5 5 6 6 6 6 6 6 6 6 6
4 4 4 3 3 3 3 3 3 3 3 3 4 4 4 5 6 6 5 3 3 4 4 5 5 5 6 5 4 4 4 3 3 4 5 4 4 5 5 3 4 4 4
4 4 4 4 4 4 3 3 2 2 3 2 3 3 4 4 5 6 5 3 3 3 3 4 5 5 6 6 5 5 4 3 3 2 3 3 4 4 6 5 5 4 3
4 4 4 4 4 4 3 2 2 2 1 2 2 2 3 3 5 5 4 3 3 3 3 3 3 5 6 6 6 5 5 3 3 2 2 2 2 3 3 4 4 4 4
4 4 4 4 3 2 2 2 1 1 2 2 2 2 2 2 3 4 4 3 3 3 3 3 3 4 5 6 4 4 3 2 2 2 2 2 2 2 2 3 3 4 5
3 4 4 3 3 2 1 1 1 1 2 2 2 2 2 2 2 3 3 3 3 2 2 2 3 3 4 4 4 4 3 2 2 2 2 2 2 2 2 2 2 2 3
3 3 3 2 2 1 1 1 2 2 2 2 2 2 2 2 2 2 2 1 2 1 2 3 3 3 2 2 3 3 2 2 2 2 2 1 1 1 1 1 1 1 2
3 3 2 2 2 1 1 1 2 2 3 3 3 3 3 3 3 2 2 2 2 2 2 2 2 2 2 2 1 2 2 2 2 1 1 1 1 1 1 1 1 1 2
3 2 2 2 1 1 1 1 1 2 3 3 3 3 3 3 3 3 3 3 3 3 3 3 2 2 2 2 2 1 2 2 1 1 1 1 1 1 1 1 1 1 2
3 3 2 2 1 1 1 1 1 1 1 1 2 2 2 3 3 3 3 3 4 4 3 2 2 2 2 2 2 1 1 1 1 1 1 1 1 1 1 1 1 1 2
3 3 3 2 2 2 2 2 2 1 1 1 1 2 2 2 2 2 3 3 3 2 2 2 2 2 2 2 2 1 1 1 1 1 1 1 1 1 1 1 1 2 2
3 2 2 2 2 2 2 2 1 1 1 1 1 0 1 2 2 2 3 2 2 2 1 1 2 2 2 2 1 1 1 1 1 1 1 1 1 1 1 1 2 2 2
2 2 2 2 1 1 1 1 1 1 1 1 1 0 0 1 1 1 1 1 1 1 1 2 2 2 2 2 2 2 1 1 1 1 1 1 1 1 1 2 1 1 1
2 2 2 1 1 1 1 1 1 1 1 1 1 1 1 1 1 1 1 1 1 1 1 1 2 2 2 2 2 2 2 2 1 1 1 1 1 1 1 1 1 1 1
2 2 2 1 1 1 1 1 2 2 2 1 1 1 1 1 1 1 1 1 1 1 1 2 2 2 2 2 2 2 2 2 2 2 1 1 1 1 1 1 1 1 1
2 2 2 2 2 2 1 1 1 1 1 1 1 1 1 1 1 1 1 1 1 1 1 2 2 2 2 2 2 2 2 2 2 2 2 1 1 1 1 0 0 1 1
2 2 2 2 1 1 1 1 1 1 1 1 1 1 1 1 1 1 1 1 1 1 1 1 2 2 2 2 2 2 2 2 2 2 2 2 1 1 0 0 0 1 1
2 2 2 1 1 1 1 1 1 1 1 1 1 1 1 1 1 1 1 1 1 1 1 1 1 1 2 2 2 2 2 2 2 2 2 2 1 1 1 0 0 0 1
2 2 1 1 1 1 1 1 1 1 1 1 1 1 1 1 1 1 1 1 1 1 1 1 1 1 2 2 2 3 3 3 3 2 2 2 2 1 1 1 1 1 1
Wind_Direction
231 224 219 216 213 213 213 213 210 209 207 205 205 206 206 206 202 202 206 205 208 213 215 217 223 224 225 223 226 229 236 240 249 265 265 263 262 265 272 271 271 269 274
246 238 230 224 214 215 215 213 208 206 206 205 205 205 205 204 202 202 205 208 208 213 218 219 223 223 226 223 223 227 231 236 241 254 264 266 270 272 279 278 279 274 276
276 247 240 231 220 215 214 211 210 207 205 203 203 204 204 203 203 206 207 211 212 216 217 219 223 221 223 221 221 226 227 231 240 242 257 269 275 273 281 280 281 278 280
308 268 248 238 226 216 212 209 208 206 204 202 203 205 205 205 205 205 204 210 215 219 221 221 221 221 221 217 222 227 224 225 231 239 250 262 265 270 268 277 284 285 285
316 302 271 251 236 221 214 210 208 208 206 201 201 204 205 204 206 204 204 208 209 214 223 224 223 223 224 221 222 223 220 222 225 234 245 253 254 259 262 273 277 289 288
328 318 311 293 258 231 218 214 208 207 204 202 203 204 207 208 205 203 204 207 208 210 216 223 222 220 222 220 224 230 230 227 226 231 240 246 250 256 261 264 273 287 286
337 325 311 297 279 259 239 224 213 209 203 203 203 205 211 209 202 201 199 205 209 211 213 216 221 223 228 225 221 225 231 239 239 236 239 246 250 245 245 253 261 274 278
333 326 316 308 287 269 252 240 229 216 207 204 203 206 214 212 203 197 194 205 209 214 218 220 222 227 228 226 222 227 233 240 243 242 242 245 244 242 241 251 263 276 284
326 319 314 306 294 273 258 250 244 228 220 207 206 207 213 215 205 194 193 201 207 215 221 224 225 231 229 222 220 225 236 249 255 260 263 251 245 245 244 242 248 259 275
310 309 309 302 290 272 261 262 256 236 229 207 211 215 213 214 204 198 197 198 204 216 222 224 226 229 223 214 221 219 224 237 237 240 241 225 229 227 229 230 233 243 265
303 304 301 296 283 269 262 260 248 235 219 215 216 221 217 214 205 203 213 206 206 213 221 228 229 224 224 219 224 226 223 230 227 226 231 233 237 235 236 239 240 241 250
298 296 293 294 287 272 254 251 240 210 200 212 211 215 225 214 211 212 225 227 220 216 225 232 229 224 219 212 217 208 194 195 200 213 219 229 242 257 262 264 255 256 257
292 290 287 290 285 270 247 237 226 208 206 213 210 218 230 234 227 227 233 222 225 233 232 230 228 214 197 199 192 185 180 188 196 212 222 237 255 271 277 282 290 285 282
285 290 290 290 284 274 248 227 219 215 213 215 216 220 228 230 228 226 225 211 204 216 211 198 193 184 186 173 171 187 198 198 201 215 224 231 248 274 271 263 272 276 290
295 297 294 287 274 270 265 248 230 229 226 226 223 221 221 227 232 240 234 224 221 204 179 170 170 171 173 172 182 197 191 184 195 211 212 217 244 270 291 284 269 277 283
299 302 297 289 280 278 282 285 268 245 253 246 236 234 242 247 239 236 238 228 209 184 167 167 178 188 188 179 173 179 180 187 196 206 214 222 241 259 282 308 308 290 290
291 293 292 286 272 264 263 262 278 287 242 240 228 232 240 241 238 232 221 203 186 176 166 167 182 193 184 174 167 170 179 186 196 201 213 223 242 258 270 295 298 285 290
289 289 284 275 268 264 257 253 253 263 276 278 210 198 220 220 217 210 194 175 174 167 172 174 180 181 174 165 162 165 167 172 189 203 213 233 243 249 270 297 301 302 305
298 286 279 272 263 260 259 251 241 240 248 265 305 172 146 159 164 159 160 169 175 175 170 174 176 175 173 166 161 165 171 181 194 208 219 234 241 246 269 288 292 305 305
319 312 295 279 263 249 243 237 230 224 226 231 220 224 130 136 150 149 135 134 155 167 165 166 171 175 169 166 163 165 171 181 194 213 225 238 247 254 268 280 289 305 316
322 325 314 293 276 257 239 239 238 231 231 235 247 233 208 201 195 189 190 182 176 177 175 172 174 175 177 173 172 177 187 196 204 211 224 243 250 258 271 280 294 313 327
321 321 317 295 278 263 255 245 229 222 226 236 252 239 180 198 195 195 198 199 196 195 183 178 180 186 189 188 190 191 194 199 202 205 215 227 237 253 277 296 327 338 344
320 323 321 317 306 283 269 243 230 224 228 232 224 221 214 212 208 209 206 202 189 178 178 181 182 184 188 195 203 200 201 205 206 202 203 204 211 228 227 250 349 345 345
314 313 311 308 307 309 311 299 271 243 236 239 225 211 214 213 198 199 204 190 169 159 167 174 181 186 197 206 203 207 212 204 193 191 197 193 191 207 208 189 341 355 347
302 301 303 305 304 306 306 305 305 298 269 244 233 219 207 200 195 196 183 159 147 137 132 136 144 152 164 181 195 195 185 188 196 193 189 170 159 164 162 156 36 24 15
301 299 299 303 298 291 283 284 292 292 276 263 252 231 207 194 188 184 165 151 142 137 136 137 146 155 161 167 168 165 167 170 176 177 174 154 151 147 138 123 98 64 41
Height
1428 1429 1431 1432 1434 1436 1438 1440 1442 1444 1446 1448 1450 1452 1454 1456 1458 1459 1461 1463 1464 1465 1466 1468 1469 1470 1470 1471 1472 1472 1472 1472 1470 1468 1469 1468 1467 1466 1465 1464 1462 1461 1460
1425 1426 1427 1428 1430 1431 1433 1435 1437 1439 1442 1444 1446 1447 1449 1451 1452 1454 1455 1457 1459 1460 1461 1462 1463 1464 1465 1466 1466 1467 1467 1467 1466 1464 1464 1463 1463 1462 1460 1459 1457 1456 1455
1422 1423 1424 1424 1425 1427 1429 1430 1433 1435 1437 1439 1441 1443 1444 1446 1448 1449 1451 1452 1453 1455 1456 1457 1458 1459 1459 1460 1461 1462 1462 1462 1461 1460 1459 1459 1458 1457 1456 1454 1453 1452 1450
1420 1420 1420 1421 1422 1423 1425 1427 1429 1431 1433 1435 1437 1438 1440 1441 1443 1444 1446 1447 1448 1449 1450 1451 1452 1453 1454 1455 1456 1457 1457 1457 1457 1456 1455 1454 1453 1453 1452 1450 1448 1447 1445
1418 1417 1417 1418 1419 1420 1422 1423 1425 1427 1429 1430 1432 1434 1436 1437 1438 1440 1441 1442 1443 1444 1445 1446 1447 1448 1449 1450 1451 1452 1452 1452 1452 1451 1450 1450 1449 1448 1447 1445 1443 1441 1440
1415 1415 1415 1415 1416 1417 1419 1420 1421 1423 1424 1426 1428 1429 1431 1432 1434 1436 1437 1438 1439 1440 1440 1442 1442 1443 1444 1445 1446 1446 1447 1447 1447 1446 1446 1445 1444 1444 1443 1442 1440 1437 1435
1413 1413 1413 1413 1413 1414 1416 1417 1418 1419 1421 1422 1424 1425 1427 1428 1430 1431 1433 1434 1435 1435 1436 1437 1438 1438 1439 1440 1440 1441 1442 1442 1442 1442 1441 1440 1440 1439 1438 1437 1436 1434 1432
1412 1411 1411 1411 1411 1411 1412 1413 1415 1416 1417 1419 1420 1422 1423 1424 1426 1427 1428 1429 1430 1431 1432 1433 1434 1434 1435 1436 1436 1436 1436 1436 1436 1436 1436 1436 1436 1435 1434 1433 1432 1431 1428
1410 1410 1409 1409 1408 1409 1410 1410 1412 1413 1414 1415 1417 1418 1419 1421 1422 1423 1424 1425 1426 1427 1428 1429 1429 1430 1430 1431 1432 1431 1431 1431 1431 1431 1431 1431 1431 1430 1430 1429 1428 1427 1424
1409 1408 1408 1407 1407 1407 1407 1408 1409 1410 1411 1412 1413 1415 1416 1417 1419 1419 1420 1421 1422 1422 1424 1424 1425 1425 1426 1427 1427 1427 1426 1426 1427 1426 1427 1427 1426 1425 1425 1424 1424 1423 1420
1407 1407 1406 1406 1405 1405 1406 1406 1407 1407 1408 1408 1410 1411 1413 1414 1415 1416 1417 1417 1418 1418 1419 1420 1421 1421 1422 1423 1423 1423 1423 1423 1423 1423 1423 1422 1422 1422 1421 1420 1419 1419 1418
1405 1405 1404 1404 1403 1403 1403 1404 1404 1405 1406 1407 1408 1409 1410 1411 1412 1412 1414 1415 1415 1415 1416 1416 1417 1418 1418 1418 1419 1419 1419 1419 1419 1419 1419 1419 1418 1418 1417 1416 1416 1415 1415
1403 1403 1402 1402 1401 1401 1401 1402 1402 1403 1404 1404 1405 1406 1407 1408 1409 1410 1411 1411 1412 1413 1413 1413 1414 1414 1415 1415 1415 1416 1416 1416 1416 1416 1416 1415 1415 1414 1413 1412 1412 1411 1411
1401 1401 1400 1399 1399 1399 1399 1400 1400 1400 1401 1402 1402 1403 1404 1405 1406 1407 1408 1408 1409 1410 1410 1410 1411 1411 1411 1412 1412 1412 1413 1413 1413 1413 1413 1412 1412 1411 1410 1409 1409 1408 1407
1399 1398 1398 1398 1398 1397 1397 1398 1398 1399 1399 1399 1400 1400 1401 1401 1403 1404 1405 1405 1406 1406 1407 1407 1407 1408 1408 1408 1409 1409 1409 1410 1410 1410 1410 1410 1409 1408 1408 1407 1406 1405 1405
1397 1396 1396 1396 1396 1396 1396 1396 1396 1397 1397 1397 1397 1398 1398 1399 1400 1401 1402 1403 1404 1404 1404 1404 1405 1405 1406 1406 1406 1406 1406 1407 1408 1408 1408 1408 1407 1406 1406 1405 1404 1403 1403
1395 1395 1394 1394 1394 1394 1394 1394 1394 1395 1395 1395 1395 1395 1396 1397 1398 1399 1399 1400 1401 1401 1401 1402 1403 1403 1404 1404 1404 1405 1405 1405 1406 1406 1406 1406 1406 1405 1404 1403 1402 1402 1401
1394 1393 1393 1392 1392 1392 1392 1392 1392 1392 1392 1392 1393 1393 1394 1394 1395 1396 1397 1397 1398 1399 1399 1400 1401 1401 1402 1402 1403 1403 1404 1404 1405 1405 1405 1404 1404 1403 1402 1401 1401 1400 1399
1393 1392 1391 1391 1390 1390 1390 1390 1390 1390 1390 1390 1391 1391 1392 1393 1393 1394 1394 1395 1395 1396 1397 1398 1399 1399 1400 1401 1401 1402 1403 1403 1404 1404 1403 1403 1403 1402 1401 1401 1400 1399 1398
1391 1391 1390 1389 1389 1388 1388 1388 1388 1389 1388 1389 1389 1389 1390 1390 1391 1392 1392 1393 1393 1394 1395 1396 1397 1398 1398 1399 1400 1401 1401 1402 1402 1402 1402 1402 1401 1401 1401 1400 1399 1398 1398
1390 1389 1389 1388 1388 1387 1387 1387 1387 1387 1387 1387 1388 1388 1388 1388 1389 1389 1390 1391 1392 1392 1393 1394 1395 1396 1397 1398 1398 1399 1400 1400 1401 1401 1401 1401 1401 1400 1400 1399 1399 1398 1397
1389 1388 1387 1387 1386 1386 1386 1386 1386 1386 1386 1386 1386 1387 1387 1387 1388 1388 1389 1389 1390 1391 1392 1393 1394 1395 1396 1396 1397 1398 1399 1399 1399 1399 1400 1400 1400 1399 1399 1399 1398 1398 1397
1388 1387 1386 1385 1385 1385 1384 1384 1384 1384 1384 1385 1385 1385 1386 1386 1386 1387 1387 1388 1389 1390 1390 1391 1392 1393 1394 1395 1396 1397 1397 1398 1398 1398 1398 1398 1398 1399 1399 1398 1398 1398 1397
1387 1386 1385 1384 1384 1383 1383 1383 1383 1383 1383 1383 1383 1384 1384 1385 1385 1386 1386 1387 1387 1388 1389 1390 1391 1392 1393 1394 1395 1395 1396 1397 1397 1398 1398 1397 1398 1398 1398 1398 1397 1397 1397
1386 1385 1384 1383 1382 1382 1382 1382 1382 1382 1382 1382 1382 1382 1383 1383 1384 1384 1385 1386 1386 1387 1388 1389 1390 1391 1392 1393 1393 1394 1395 1396 1396 1396 1397 1397 1397 1397 1397 1397 1397 1397 1397
1384 1384 1383 1382 1382 1381 1381 1381 1381 1381 1381 1381 1381 1381 1381 1382 1382 1383 1384 1384 1385 1386 1387 1388 1389 1390 1391 1391 1392 1393 1394 1394 1395 1395 1396 1396 1396 1397 1397 1397 1397 1397 1397